Other Surface Observations
Issued by NWS

Home | Current Version | Previous Version | Text Only | Print | Product List | Glossary On
Versions: 1 2 3 4 5 6 7 8 9 10 11 12 13 14 15 16 17 18 19 20 21 22 23 24 25 26 27 28 29 30 31 32 33 34 35 36 37 38 39 40 41 42 43 44 45 46 47 48 49 50
000
SXUS52 KTAE 152018
OSOTAE
OSOTAE
North Florida/South Alabama/Southwest Georgia Weather Roundup
National Weather Service Tallahassee Florida
300 PM EST FRI DEC 15 2017

Note: "fair" indicates few or no clouds below 12,000 feet with no
significant weather and/or obstructions to visibility.

!FLZ017-115-028-034-025-152100
...North Florida...

CITY           SKY/WX    TMP DP  RH WIND       PRES   REMARKS
TALLAHASSEE    CLOUDY    60  42  51 NW13      30.09R
APALACHICOLA   CLOUDY    65  43  44 NW8       30.08R
PERRY          MOSUNNY   68  51  55 W8        30.07S
CROSS CITY     PTSUNNY   72  59  63 W12       30.10R
JACKSONVILLE   CLOUDY    71  56  58 W10       30.02R
$$

!FLZ112-006-005-002-011-152100
...Florida Panhandle...

CITY           SKY/WX    TMP DP  RH WIND       PRES   REMARKS
MARIANNA       CLOUDY    52  39  61 NW8       30.11S
BONIFAY        NOT AVBL
PANAMA CITY NW CLOUDY    53  42  66 NW8       30.10S
TYNDALL AFB    CLOUDY    55  40  58 N9        30.11R
TYND DRONE APT CLOUDY    55  43  64 N8        30.10R
DE FUNIAK SPR  CLOUDY    48  34  58 NW12G18   30.15R WCI  43
EGLIN AFB      CLOUDY    51  34  53 N12G20    30.13R
DESTIN         CLOUDY    53  35  50 N15G22    30.13S
HURLBURT       CLOUDY    51  36  57 N17G23    30.12S
CRESTVIEW      LGT RAIN  48  33  56 N8G18     30.17R WCI  44
PENSACOLA      LGT RAIN  49  37  63 N12       30.14F WCI  44
$$

!ALZ063-066-152100
...South Alabama...

CITY           SKY/WX    TMP DP  RH WIND       PRES   REMARKS
DOTHAN         CLOUDY    48  33  56 NW13      30.16R WCI  43
OZARK CAIRNS   CLOUDY    48  33  55 NW8       30.13R WCI  44
FT RUCKER HELI CLOUDY    47  33  56 N7        30.14R WCI  44
RUCKER HELI 3    N/A     47  33  59 NW10      30.13R WCI  42
RUCKER HELI 2  CLOUDY    47  31  54 N8        30.12R WCI  43
FLORALA APT    CLOUDY    47  32  56 VRB5      30.17R WCI  45
ANDALUSIA      CLOUDY    49  30  48 NW9       30.15S WCI  45
TROY           CLOUDY    45  27  49 N10       30.16S WCI  40
EUFALA         FAIR      48  33  56 NW8       30.10F WCI  44
MOBILE         CLOUDY    49  32  52 N10       30.16F WCI  45
$$

!GAZ120>161-152100
...Southwest and South Central Georgia...

CITY           SKY/WX    TMP DP  RH WIND       PRES   REMARKS
THOMASVILLE    CLOUDY    55  43  62 NW9       30.10R
BAINBRIDGE     CLOUDY    54  45  71 NW7       30.10F
MOODY AFB      CLOUDY    58  42  56 NW8       30.06R
VALDOSTA       CLOUDY    59  42  53 VRB5      30.07R
MOULTRIE       CLOUDY    54  43  66 W6        30.10R
BLAKELY        NOT AVBL
ALBANY         CLOUDY    53  37  54 NW9       30.12R
TIFTON         CLOUDY    53  42  68 W9        30.08R
FITZGERALD     CLOUDY    55  42  62 W8        30.09S
CORDELE        FAIR      58  36  43 W8        30.09S
AMERICUS       FAIR      50  28  43 NW9       30.10R
HOMERVILLE     FAIR      59  43  55 NW10      30.07R
$$

!GMZ750-755-770-775-152100
...Coastal and Buoy Obs...

STATION/POSITION TIME  TEMP    WIND        PRES    VSBY  WAVE
                       AIR SEA DIR/SP/G                  HT/PER
                 (UTC) (F)     (DEG/KT/KT) (MB)    (MI)  (FT/S)
KEATON BEACH     2000   60     270/  3/  3 1018.0R
CEDAR KEY        2000   65     210/  4/  4 1018.4F
C TOWER          2000   62     320/ 11/ 11 1019.3R
APALACHICOLA BUO NOT AVBL
PANAMA CITY BUOY 1950   63 74  360/ 16/ 19 1018.7R         2/ 4
MOBILE BUOY      2000   58 71   10/ 17/ 21 1020.8
ORANGE BCH AL BU NOT AVBL
$$




USA.gov is the U.S. government's official web portal to all federal, state and local government web resources and services.